Location: Newark
(43.4956°N, 70.4470°W)
Time: 18:51:44
(UTC+00:00)

Envisat - Visible Passes

Search period start: 07 December 2019 00:00
Search period end: 17 December 2019 00:00
Orbit: 764 x 766 km, 98.1° (Epoch: 07 December)

Date Brightness Start Highest point End Pass type
(mag) Time Alt. Az. Time Alt. Az. Time Alt. Az.
07 Dec 3.3 22:49:10 10° S 22:54:13 70° WSW 22:59:19 10° NNW visible
08 Dec 4.7 10:57:03 10° NNE 11:01:46 37° E 11:06:27 10° SSE visible
08 Dec 3.1 22:12:33 10° SSE 22:17:29 55° ENE 22:22:27 10° N visible
08 Dec 5.6 23:53:21 10° SW 23:56:51 19° W 00:00:23 10° NW visible
09 Dec 5.9 10:21:20 10° NE 10:24:41 17° E 10:28:01 10° SE visible
09 Dec 3.9 21:36:47 10° ESE 21:40:58 27° ENE 21:45:10 10° N visible
09 Dec 4.3 23:15:03 10° SSW 23:19:47 40° W 23:24:34 10° NNW visible
10 Dec 3.6 11:22:17 10° NNE 11:27:21 65° E 11:32:23 10° S visible
10 Dec 3.0 22:37:51 10° SSE 22:42:56 87° WSW 22:48:03 10° NNW visible
11 Dec 6.2 00:22:04 10° W 00:22:40 10° W 00:23:17 10° W visible
11 Dec 5.1 10:45:58 10° NE 10:50:25 30° E 10:54:50 10° SSE visible
11 Dec 3.3 22:01:28 10° SE 22:06:16 44° ENE 22:11:05 10° N visible
11 Dec 5.3 23:41:28 10° SW 23:45:28 23° W 23:49:30 10° NW visible
12 Dec 6.1 10:10:44 10° ENE 10:13:16 14° E 10:15:48 10° ESE visible
12 Dec 3.9 23:03:33 10° S 23:08:28 50° W 23:13:24 10° NNW visible
13 Dec 4.0 11:11:05 10° NNE 11:16:03 51° E 11:20:59 10° S visible
13 Dec 2.9 22:26:36 10° SSE 22:31:40 76° ENE 22:36:45 10° N visible
14 Dec 6.0 00:08:49 10° WSW 00:11:14 13° W 00:13:41 10° WNW visible
14 Dec 5.5 10:34:58 10° NE 10:39:03 24° E 10:43:06 10° SSE visible
14 Dec 3.5 21:50:28 10° SE 21:55:03 35° ENE 21:59:39 10° N visible
14 Dec 4.9 23:29:43 10° SSW 23:34:06 29° W 23:38:31 10° NW visible
15 Dec 6.4 10:00:50 10° ENE 10:01:51 11° E 10:02:50 10° E visible
15 Dec 3.4 22:52:08 10° S 22:57:09 64° W 23:02:13 10° NNW visible
16 Dec 4.5 10:59:55 10° NNE 11:04:43 41° E 11:09:29 10° SSE visible
16 Dec 3.0 22:15:26 10° SSE 22:20:24 60° ENE 22:25:25 10° N visible
